Regional Weather Roundup
Issued by NWS Huntsville, AL

Home | Current Version | Previous Version | Text Only | Print | Product List | Glossary On
Versions: 1 2 3 4 5 6 7 8 9 10 11 12 13 14 15 16 17 18 19 20 21 22 23 24 25 26 27 28 29 30 31 32 33 34 35 36 37 38 39 40 41 42 43 44 45 46 47 48
000
ASUS44 KHUN 221310
RWRHUN

WEATHER ROUNDUP FOR THE TENNESSEE VALLEY
NATIONAL WEATHER SERVICE HUNTSVILLE AL
800 AM CDT WED OCT 22 2014

ALZ001>004-221400-
NORTHWEST ALABAMA

CITY           SKY/WX    TMP DP  RH WIND       PRES   REMARKS
SHOALS AIRPORT SUNNY     50  42  74 NE6       30.21R
SHOALS TVA RES   N/A     50 N/A N/A MISG        N/A
$$

ALZ005>007-016-221400-
NORTH CENTRAL ALABAMA

CITY           SKY/WX    TMP DP  RH WIND       PRES   REMARKS
DECATUR AP     SUNNY     47  42  83 N3        30.19R
HUNTSVILLE AP  SUNNY     50  43  77 N3        30.18R
HUN NWS/UAH      N/A     48  41  76 NE8         N/A
MERIDIANVILLE  SUNNY     43  37  81 CALM      30.19R
REDSTONE ARSN  SUNNY     46  43  87 CALM      30.19
VINEMONT AP    FAIR      43  42  98 CALM      30.19R
$$

ALZ008>010-221400-
NORTHEAST ALABAMA

CITY           SKY/WX    TMP DP  RH WIND       PRES   REMARKS
ALBERTVILLE    SUNNY     46  45  93 N6        30.16R
FORT PAYNE     SUNNY     39  36  87 CALM      30.16R
SCOTTSBORO AP  SUNNY     46  41  81 N3        30.19R
SCOTTSBORO HCN   N/A     41 N/A N/A MISG        N/A
VALLEY HEAD      N/A     37 N/A N/A MISG        N/A
$$

TNZ076-096-097-221400-
SOUTHEASTERN MIDDLE TENNESSEE

CITY           SKY/WX    TMP DP  RH WIND       PRES   REMARKS
TULLAHOMA      SUNNY     45  41  87 NE6       30.20R
WINCHESTER     SUNNY     39  37  93 CALM      30.19R
$$

...SURROUNDING SITES...

CITY           SKY/WX    TMP DP  RH WIND       PRES   REMARKS
ATLANTA        SUNNY     49  41  74 NW8       30.10R
ANNISTON       SUNNY     50  43  77 NE5       30.15R
BIRMINGHAM     SUNNY     50  44  80 CALM      30.17R
CHATTANOOGA    SUNNY     50  41  71 N12       30.18R
CORINTH        FAIR      45  43  93 CALM      30.22R FOG
DALTON         SUNNY     45  43  93 N9        30.17R
GADSDEN        SUNNY     46  41  81 N3        30.17R
GOLDEN TRNGL   SUNNY     46  43  87 N5        30.16R
HALEYVILLE     FAIR      46  43  90 VRB5      30.20R
JACKSON TN     CLEAR     44  41  89 CALM      30.24R
MEMPHIS        CLEAR     53  44  71 E5        30.22R
NASHVILLE      SUNNY     48  43  82 N7        30.24R
OXFORD MS      FAIR      46  45  93 NE7       30.21R
ROME           SUNNY     50  41  71 N7        30.15R
SAVANNAH       CLEAR     39  39 100 CALM      30.21S
TUPELO         CLEAR     49  45  86 NE8       30.19R
TUSCALOOSA     SUNNY     52  49  89 CALM      30.17R
$$

...GULF COAST WEATHER...

CITY           SKY/WX    TMP DP  RH WIND       PRES   REMARKS
GULFPORT       SUNNY     59  53  80 N7        30.07R
PASCAGOULA     SUNNY     56  54  93 N5        30.08R
MOBILE         SUNNY     58  53  84 NE8       30.09R
GULF SHORES    SUNNY     58  53  85 NE5       30.06R
PENSACOLA      SUNNY     61  56  83 N7        30.06R
DESTIN         SUNNY     65  54  67 NE8       30.06R
PANAMA CITY    SUNNY     62  55  76 NE6       30.05R
APPALACHICOLA  SUNNY     64  54  69 NE9       30.04R
$$




USA.gov is the U.S. government's official web portal to all federal, state and local government web resources and services.